[[{"header":{"parameterUnit":"m.s-1","parameterCategory":1,"la1":30.2991,"la2":30.254,"lo1":-89.0895,"lo2":-89.0444,"dy":0.0017,"dx":0.0017,"nx":28,"ny":28,"refTime":"2025-12-17T09:00:00:Z","depth":0,"parameterNumber":2,"parameterNumberName":"U-component_of_WINDS"},"data":[0,0,0,0,0,0,0,0,0,0,0,0,0,0,0,0,0,0,0,0,0,0,0,0,0,0,0,0,0,0,0,0,0,0,0,0,0,0,0,0,0,0,0,0,0,0,0,0,0,0,0,0,0,0,0,0,0,0,-2.1528,-2.1528,0,-2.1552,-2.1552,-2.1552,-2.1448,-2.1445,-2.1442,-2.1439,-2.1463,-2.1467,-2.147,0,0,0,0,0,0,0,0,0,0,0,0,0,-2.139,-2.1394,-2.1528,-2.1528,-2.1528,-2.1552,-2.1552,-2.1552,-2.1449,-2.1445,-2.1442,-2.1438,-2.1462,-2.1466,-2.147,0,0,0,0,0,0,0,0,0,0,0,0,0,-2.1436,-2.1395,-2.1528,-2.1479,-2.1475,-2.1552,-2.1552,-2.1552,-2.145,-2.1445,-2.1441,-2.1436,-2.1461,-2.1466,-2.1471,-2.1594,0,0,-2.1487,-2.1489,0,0,0,0,0,0,0,0,-2.1433,-2.1441,-2.1486,-2.1483,-2.1478,-2.1492,-2.1512,-2.1567,-2.1451,-2.146,-2.1439,-2.1434,-2.1477,-2.148,-2.1495,-2.1595,-2.1596,-2.1487,-2.149,-2.1493,-2.1494,0,0,0,0,0,0,0,-2.143,-2.1439,-2.1537,-2.1487,-2.1482,-2.1456,-2.1458,-2.1522,-2.1493,-2.1458,-2.1451,-2.1455,-2.1474,-2.149,-2.1495,-2.1597,-2.1487,-2.1492,-2.1495,-2.1497,-2.18,-2.1805,0,0,0,0,0,0,-2.1434,-2.1437,-2.1536,-2.1538,-2.1444,-2.1462,-2.1464,-2.1493,-2.1492,-2.1488,-2.1459,-2.145,-2.1483,-2.1489,-2.1495,-2.164,-2.1493,-2.1498,-2.1501,-2.1795,-2.1801,-2.1807,0,0,0,0,0,0,-2.1431,-2.1444,-2.1535,-2.1486,-2.1495,-2.147,-2.1503,-2.1495,-2.1512,-2.1493,-2.1487,-2.1481,-2.148,-2.1488,-2.1571,-2.1639,-2.15,-2.1505,-2.179,-2.1797,-2.1804,-2.1931,0,0,0,0,0,0,-2.1428,-2.1443,-2.149,-2.1488,-2.1498,-2.1611,-2.1507,-2.1499,-2.1521,-2.151,-2.1512,-2.1508,-2.1477,-2.1563,-2.1576,-2.1644,-2.1509,-2.1783,-2.1793,-2.1802,-2.1921,-2.1942,-2.196,0,0,0,0,0,-2.1423,-2.1525,-2.1493,-2.1506,-2.1557,-2.1616,-2.1622,-2.1584,-2.1527,-2.1574,-2.1562,-2.1508,-2.163,-2.1573,-2.1586,-2.1657,-2.1779,-2.179,-2.1801,-2.1912,-2.1938,-2.196,0,0,0,0,0,0,-2.1536,-2.1524,-2.1488,-2.1592,-2.1606,-2.1598,-2.1656,-2.1613,-2.1642,-2.1631,-2.1582,-2.1583,-2.1675,-2.1674,-2.1611,-2.1776,-2.1694,-2.1709,-2.1774,-2.1798,-2.1818,-2.1817,-2.1513,0,0,0,0,0,-2.1573,-2.1622,-2.1608,-2.1701,-2.171,-2.1682,-2.1706,-2.1676,-2.1688,-2.1693,-2.1687,-2.17,-2.1741,-2.177,-2.1806,-2.1919,-2.1919,-2.1974,-2.1994,-2.201,-2.2024,-2.2084,-2.2109,-2.1843,-2.1843,-2.1843,0,0,-2.165,-2.1649,-2.1683,-2.1724,-2.1731,-2.1783,-2.1688,-2.1746,-2.1784,-2.1702,-2.178,-2.1776,-2.1788,-2.1887,-2.193,-2.1888,-2.2097,-2.2025,-2.2038,-2.2042,-2.2098,-2.2123,-2.2146,-2.1851,-2.1849,-2.1848,0,0,-2.1816,-2.1821,-2.1899,-2.1908,-2.192,-2.1901,-2.192,-2.1918,-2.1913,-2.1991,-2.193,-2.1974,-2.2046,-2.2057,-2.2072,-2.2243,-2.2195,-2.2256,-2.236,-2.2419,-2.244,-2.2458,-2.252,-2.2543,-2.2269,-2.2269,-2.227,0,-2.191,-2.1987,-2.1944,-2.2008,-2.2028,-2.1955,-2.2034,-2.2045,-2.2068,-2.2084,-2.2037,-2.2126,-2.2128,-2.2229,-2.2271,-2.2285,-2.2305,-2.2256,-2.244,-2.2458,-2.2475,-2.2533,-2.2557,-2.2277,-2.2276,-2.2275,-2.2275,0,-2.2102,-2.2156,-2.2217,-2.2243,-2.2269,-2.234,-2.2308,-2.234,-2.2307,-2.2293,-2.2373,-2.2374,-2.241,-2.2431,-2.24,-2.2528,-2.2502,-2.2449,-2.2365,-2.2508,-2.2562,-2.2584,-2.2288,-2.2285,-2.2283,-2.2281,0,0,-2.2341,-2.2342,-2.2365,-2.2376,-2.2384,-2.2425,-2.2492,-2.2527,-2.2556,-2.2574,-2.263,-2.2692,-2.2643,-2.266,-2.2629,-2.2681,-2.2818,-2.2621,-2.2621,-2.2659,-2.296,-2.3001,-2.3027,-2.2785,-2.2789,-2.2793,-2.2959,0,-2.2505,-2.2621,-2.2585,-2.2702,-2.2751,-2.2684,-2.2742,-2.2753,-2.2742,-2.2781,-2.2768,-2.2814,-2.2745,-2.2755,-2.2803,-2.2791,-2.2878,-2.2778,-2.2837,-2.284,-2.2837,-2.3055,-2.3099,-2.3256,-2.298,-2.2983,-2.2986,0,-2.2712,-2.274,-2.2862,-2.2862,-2.2882,-2.2935,-2.2965,-2.3004,-2.3015,-2.3003,-2.3023,-2.2981,-2.3046,-2.2962,-2.3052,-2.2986,-2.3007,-2.3005,-2.301,-2.3015,-2.2922,-2.3067,-2.3305,-2.3329,-2.3019,-2.3016,-2.3014,0,-2.2876,-2.2943,-2.3025,-2.3036,-2.3038,-2.3078,-2.308,-2.3087,-2.311,-2.3136,-2.3151,-2.3184,-2.3203,-2.3229,-2.3197,-2.3139,-2.3292,-2.3205,-2.3284,-2.3285,-2.332,-2.3319,-2.3566,-2.3333,-2.3333,-2.3332,-2.3332,0,-2.3064,-2.3142,-2.3099,-2.315,-2.3234,-2.3192,-2.3277,-2.3271,-2.3278,-2.3326,-2.3269,-2.3315,-2.327,-2.3312,-2.3287,-2.3366,-2.3374,-2.3366,-2.3359,-2.3372,-2.3373,-2.3386,-2.3375,-2.3338,-2.3337,-2.3336,-2.3335,0,-2.3261,-2.3236,-2.3321,-2.3316,-2.3316,-2.3379,-2.3375,-2.3421,-2.3405,-2.3467,-2.3479,-2.3454,-2.35,-2.3471,-2.3518,-2.3501,-2.3604,-2.3581,-2.3601,-2.3595,-2.3676,-2.367,-2.3941,-2.3975,-2.372,-2.3722,-2.3724,0,-2.3383,-2.3442,-2.3443,-2.3472,-2.3478,-2.3525,-2.3549,-2.3509,-2.3536,-2.3554,-2.3598,-2.364,-2.3671,-2.3749,-2.3735,-2.377,-2.3748,-2.3841,-2.3753,-2.3765,-2.3751,-2.3748,-2.3754,-2.3859,-2.3862,-2.3865,-2.3867,0,-2.3603,-2.3588,-2.3625,-2.3659,-2.369,-2.3714,-2.3733,-2.376,-2.372,-2.3753,-2.3801,-2.3825,-2.3873,-2.3916,-2.3946,-2.3947,-2.3901,-2.3894,-2.3914,-2.3929,-2.3939,-2.3936,-2.3651,-2.3888,-2.3886,-2.3885,-2.3883,-2.3883,-2.3767,-2.3816,-2.3825,-2.3869,-2.388,-2.3899,-2.3943,-2.3933,-2.3972,-2.4008,-2.3982,-2.4038,-2.4047,-2.4083,-2.4091,-2.4134,-2.4096,-2.4125,-2.4133,-2.4141,-2.4153,-2.3931,-2.4139,-2.4138,-2.4138,-2.4137,-2.4137,0,-2.3985,-2.3988,-2.4028,-2.4058,-2.4092,-2.4046,-2.4065,-2.4097,-2.4147,-2.416,-2.4192,-2.4247,-2.4288,-2.4277,-2.4313,-2.435,-2.433,-2.4361,-2.4358,-2.436,-2.4184,-2.4163,-2.4377,-2.4377,-2.4377,-2.4377,-2.4377,-2.4377,-2.4102,-2.4183,-2.4169,-2.4254,-2.4256,-2.4311,-2.4326,-2.4344,-2.4354,-2.4418,-2.4452,-2.4444,-2.4448,-2.4484,-2.4519,-2.4515,-2.4532,-2.4571,-2.4559,-2.4396,-2.4372,-2.4349,-2.433,-2.4575,-2.4575,-2.4731,-2.4733,-2.4734]},{"header":{"parameterUnit":"m.s-1","parameterCategory":1,"la1":30.2991,"la2":30.254,"lo1":-89.0895,"lo2":-89.0444,"dy":0.0017,"dx":0.0017,"nx":28,"ny":28,"refTime":"2025-12-17T09:00:00:Z","depth":0,"parameterNumber":3,"parameterNumberName":"V-component_of_WINDS"},"data":[0,0,0,0,0,0,0,0,0,0,0,0,0,0,0,0,0,0,0,0,0,0,0,0,0,0,0,0,0,0,0,0,0,0,0,0,0,0,0,0,0,0,0,0,0,0,0,0,0,0,0,0,0,0,0,0,0,0,-2.3991,-2.3991,0,-2.4045,-2.4046,-2.4046,-2.4039,-2.4038,-2.4038,-2.4037,-2.409,-2.4092,-2.4094,0,0,0,0,0,0,0,0,0,0,0,0,0,-2.3876,-2.3878,-2.3991,-2.3991,-2.3992,-2.4045,-2.4046,-2.4047,-2.4039,-2.4038,-2.4037,-2.4036,-2.4089,-2.4092,-2.4095,0,0,0,0,0,0,0,0,0,0,0,0,0,-2.3928,-2.3879,-2.399,-2.3995,-2.3996,-2.4045,-2.4046,-2.4047,-2.404,-2.4038,-2.4037,-2.4036,-2.4088,-2.4092,-2.4095,-2.4142,0,0,-2.4105,-2.4107,0,0,0,0,0,0,0,0,-2.3925,-2.3932,-2.3993,-2.3995,-2.3996,-2.4034,-2.4025,-2.4079,-2.404,-2.4023,-2.4037,-2.4035,-2.4072,-2.4077,-2.409,-2.4145,-2.4147,-2.4105,-2.4108,-2.4109,-2.411,0,0,0,0,0,0,0,-2.3921,-2.3929,-2.4012,-2.3994,-2.3996,-2.3993,-2.3999,-2.4035,-2.4054,-2.4024,-2.4024,-2.4031,-2.4073,-2.4087,-2.4091,-2.4148,-2.4105,-2.4108,-2.411,-2.4112,-2.4242,-2.4243,0,0,0,0,0,0,-2.3917,-2.3927,-2.401,-2.4014,-2.3956,-2.3996,-2.4003,-2.4023,-2.4054,-2.4057,-2.4032,-2.403,-2.4082,-2.4087,-2.4093,-2.4149,-2.4109,-2.4112,-2.4114,-2.424,-2.4242,-2.4244,0,0,0,0,0,0,-2.3915,-2.3925,-2.4008,-2.397,-2.3981,-2.3999,-2.4023,-2.4025,-2.4039,-2.406,-2.4063,-2.4043,-2.4081,-2.4088,-2.413,-2.4151,-2.4114,-2.4117,-2.4239,-2.4241,-2.4243,-2.4262,0,0,0,0,0,0,-2.3911,-2.3924,-2.3943,-2.3971,-2.3983,-2.4045,-2.4024,-2.4027,-2.4045,-2.4044,-2.4071,-2.4074,-2.408,-2.4125,-2.4133,-2.4155,-2.4119,-2.4237,-2.424,-2.4242,-2.426,-2.4265,-2.4269,0,0,0,0,0,-2.3907,-2.3946,-2.3944,-2.3954,-2.4007,-2.4047,-2.4053,-2.4061,-2.4047,-2.4066,-2.4078,-2.4073,-2.4147,-2.4129,-2.4138,-2.4161,-2.4236,-2.4239,-2.4242,-2.4258,-2.4264,-2.4269,0,0,0,0,0,0,-2.392,-2.395,-2.3948,-2.3997,-2.4019,-2.4045,-2.4069,-2.4067,-2.4093,-2.409,-2.4097,-2.4103,-2.4145,-2.4157,-2.4137,-2.4208,-2.4189,-2.4195,-2.4198,-2.4204,-2.4209,-2.4204,-2.4122,0,0,0,0,0,-2.3928,-2.3959,-2.3983,-2.4024,-2.4035,-2.405,-2.4068,-2.4071,-2.4094,-2.4104,-2.412,-2.4141,-2.4169,-2.4187,-2.4214,-2.4262,-2.4266,-2.4282,-2.4286,-2.429,-2.4294,-2.4318,-2.4325,-2.4254,-2.4254,-2.4254,0,0,-2.3946,-2.3966,-2.3985,-2.4027,-2.4045,-2.4075,-2.4058,-2.4091,-2.4113,-2.4108,-2.4148,-2.4161,-2.4185,-2.4229,-2.4249,-2.4241,-2.4315,-2.4294,-2.4297,-2.4299,-2.4322,-2.4329,-2.4335,-2.4257,-2.4256,-2.4256,0,0,-2.3994,-2.4013,-2.4048,-2.4066,-2.4094,-2.4103,-2.4111,-2.4138,-2.4146,-2.4186,-2.4183,-2.4208,-2.4257,-2.4274,-2.4289,-2.4341,-2.4336,-2.435,-2.4373,-2.4397,-2.4402,-2.4407,-2.4424,-2.443,-2.4354,-2.4354,-2.4354,0,-2.4012,-2.4059,-2.4067,-2.41,-2.4117,-2.4115,-2.415,-2.4166,-2.4201,-2.4212,-2.4202,-2.4262,-2.4278,-2.4325,-2.4338,-2.4351,-2.4359,-2.4346,-2.4401,-2.4406,-2.4411,-2.4427,-2.4433,-2.4355,-2.4355,-2.4355,-2.4355,0,-2.4079,-2.4111,-2.4136,-2.417,-2.419,-2.4224,-2.4235,-2.4255,-2.4256,-2.4266,-2.4306,-2.4326,-2.4356,-2.4368,-2.4369,-2.4414,-2.4408,-2.44,-2.4381,-2.4419,-2.4434,-2.444,-2.4357,-2.4357,-2.4356,-2.4356,0,0,-2.4136,-2.4173,-2.4182,-2.4196,-2.4226,-2.425,-2.4282,-2.4313,-2.4328,-2.4352,-2.4378,-2.4419,-2.441,-2.4427,-2.4431,-2.4451,-2.4489,-2.444,-2.4441,-2.4447,-2.4538,-2.4543,-2.455,-2.4487,-2.4488,-2.4489,-2.4535,0,-2.4186,-2.4245,-2.4252,-2.4304,-2.4332,-2.433,-2.4358,-2.4378,-2.4388,-2.4412,-2.4423,-2.4451,-2.4439,-2.4449,-2.4469,-2.4481,-2.4507,-2.4477,-2.451,-2.4511,-2.4503,-2.4559,-2.4565,-2.4608,-2.4542,-2.4543,-2.4543,0,-2.4251,-2.4277,-2.4331,-2.4355,-2.4367,-2.4393,-2.442,-2.4444,-2.4466,-2.4471,-2.449,-2.449,-2.4522,-2.4503,-2.4546,-2.4525,-2.4539,-2.4546,-2.4548,-2.455,-2.4529,-2.4561,-2.4622,-2.4628,-2.4553,-2.4552,-2.4552,0,-2.4285,-2.4333,-2.4372,-2.4384,-2.4413,-2.4431,-2.4444,-2.4464,-2.4481,-2.4505,-2.4515,-2.4542,-2.4556,-2.4576,-2.4583,-2.4569,-2.4625,-2.4607,-2.4629,-2.4629,-2.464,-2.4639,-2.4702,-2.4651,-2.4651,-2.4651,-2.4651,0,-2.4339,-2.4372,-2.4387,-2.4411,-2.4447,-2.4455,-2.449,-2.4502,-2.452,-2.4544,-2.4544,-2.4566,-2.4575,-2.4599,-2.4604,-2.4638,-2.4645,-2.4649,-2.4649,-2.4648,-2.4647,-2.4656,-2.4653,-2.4653,-2.4652,-2.4652,-2.4652,0,-2.4383,-2.4395,-2.4436,-2.446,-2.4467,-2.4493,-2.4512,-2.4534,-2.4544,-2.4574,-2.4582,-2.4596,-2.4624,-2.4633,-2.4666,-2.467,-2.4709,-2.4708,-2.4701,-2.4701,-2.4722,-2.4719,-2.4792,-2.4801,-2.4745,-2.4746,-2.4746,0,-2.4416,-2.4441,-2.4468,-2.4485,-2.4498,-2.4525,-2.4542,-2.455,-2.4568,-2.4594,-2.4612,-2.464,-2.4662,-2.4706,-2.4718,-2.4743,-2.4742,-2.4766,-2.4746,-2.4743,-2.474,-2.4738,-2.474,-2.4769,-2.477,-2.477,-2.4771,0,-2.4472,-2.4477,-2.4502,-2.4529,-2.455,-2.4572,-2.4592,-2.4606,-2.4616,-2.4636,-2.4664,-2.4682,-2.4716,-2.4742,-2.4767,-2.4779,-2.4776,-2.4777,-2.4783,-2.4781,-2.4776,-2.4777,-2.471,-2.4775,-2.4775,-2.4774,-2.4774,-2.4774,-2.4511,-2.4533,-2.4554,-2.4582,-2.4599,-2.4618,-2.4639,-2.4651,-2.4675,-2.4704,-2.4707,-2.4737,-2.4756,-2.479,-2.4803,-2.4825,-2.4818,-2.4828,-2.483,-2.4832,-2.4832,-2.4773,-2.483,-2.483,-2.483,-2.483,-2.483,0,-2.4566,-2.458,-2.4605,-2.4634,-2.4656,-2.4652,-2.4674,-2.4692,-2.4719,-2.4738,-2.476,-2.4791,-2.4817,-2.4831,-2.4856,-2.4871,-2.487,-2.4878,-2.4876,-2.4878,-2.4838,-2.4829,-2.4878,-2.4878,-2.4878,-2.4878,-2.4878,-2.4878,-2.4597,-2.4633,-2.464,-2.4683,-2.4696,-2.4726,-2.4739,-2.4756,-2.4771,-2.4807,-2.4828,-2.4838,-2.4854,-2.488,-2.4902,-2.4906,-2.4914,-2.4922,-2.4924,-2.4886,-2.4881,-2.4876,-2.4868,-2.4924,-2.4924,-2.4962,-2.4963,-2.4963]}]]